Regional Weather Roundup
Issued by NWS

Home | Current Version | Previous Version | Graphics & Text | Print | Product List | Glossary On
Versions: 1 2 3 4 5 6 7 8 9 10 11 12 13 14 15 16 17 18 19 20 21 22 23 24 25 26 27 28 29 30 31 32 33 34 35 36 37 38 39 40 41 42 43 44 45 46 47 48 49 50
000
ASUS45 KCYS 280710
RWRWY

WYOMING REGIONAL WEATHER ROUNDUP
NATIONAL WEATHER SERVICE CHEYENNE WY
100 AM MDT SAT MAY 28 2016

NOTE:  "FAIR" INDICATES FEW OR NO CLOUDS BELOW 12,000 FEET
WITH NO SIGNIFICANT WEATHER AND/OR OBSTRUCTIONS TO VISIBILITY.

WYZ001-280800-
YELLOWSTONE NATIONAL PARK

CITY           SKY/WX    TMP DP  RH WIND       PRES   REMARKS
LK YELLOWSTONE   N/A     33  31  92 CALM      30.06S
W YELLOWSTONE  NOT AVBL

$$
WYZ002>013-054>058-071-098>099-280800-
NORTHERN WYOMING

CITY           SKY/WX    TMP DP  RH WIND       PRES   REMARKS
JACKSON        MOCLDY    46  32  57 SW10      30.01R
CODY           FAIR      46  45  93 N3        29.93S
GREYBULL       CLOUDY    55  48  77 W9        29.91R
WORLAND        MOCLDY    50  48  93 SE3       29.91S
SHERIDAN       CLOUDY    50  45  83 SE6       29.89F
BUFFALO        RAIN      50  44  80 NW9       29.94S
GILLETTE       FAIR      46  42  86 W9        29.90R
HULETT         FAIR      50  43  76 CALM      29.90S
NEWCASTLE      FAIR      50  41  71 E6        29.91S

$$
WYZ014>020-022>026-101>103-280800-
CENTRAL WYOMING

CITY           SKY/WX    TMP DP  RH WIND       PRES   REMARKS
BIG PINEY      MOCLDY    39  35  86 W3        30.03S
PINEDALE       FAIR      34  32  93 NW5       30.03S WCI  30
DUBOIS         FAIR      41  30  65 NW3       29.99S
LANDER         FAIR      48  35  60 W8        29.92S
RIVERTON       MOCLDY    51  41  68 CALM      29.93R
CASPER         FAIR      42  37  82 NW9       29.94R
DOUGLAS          N/A    N/A N/A N/A MISG      29.91F

$$
WYZ021-027>030-104>119-280800-
SOUTHERN WYOMING

CITY           SKY/WX    TMP DP  RH WIND       PRES   REMARKS
EVANSTON       MOCLDY    46  34  62 S5        30.05F
KEMMERER         N/A     41  34  75 N6        30.05F
FORT BRIDGER   MOSUNNY   43  37  81 SW10      30.08S
ROCK SPRINGS   FAIR      44  36  73 SW12      30.02S
DIXON          CLOUDY    45  41  86 NW3       30.07S
RAWLINS        MOCLDY    46  36  68 SW12      30.00F
SARATOGA       CLOUDY    43  41  93 SW8       30.05S
LARAMIE        FAIR      35  33  92 S7        30.00F WCI  29
CHEYENNE       FAIR      43  37  79 NW7       29.95S
TORRINGTON     FAIR      44  42  93 S5        29.89S
PINE BLUFFS    FAIR      36  36 100 CALM      29.94R

$$



USA.gov is the U.S. government's official web portal to all federal, state and local government web resources and services.